RH
68 62 53 46 41 38 36 34 32 29 26 23 19 15 12 10 8 8 8 8 8 8 9 10 10 12 13 14 16 17 18 20 21 22 22 23 24 27 30 34 39 44 49 51 52 54 55 57 58 61 64 69 74 77 80 81 82 82 82 82 82 81 80 79 78 75 71 65 58 53 50 49 50 50 52 54 54 54 52 50 49 48 46 45 43 42
65 58 51 46 42 39 36 34 31 27 24 20 16 12 10 8 8 8 8 8 8 9 10 10 11 12 13 14 16 18 20 21 22 23 23 24 25 27 30 34 40 44 49 51 52 54 55 56 58 60 65 71 76 80 82 82 82 82 82 82 81 80 79 77 74 71 66 60 55 52 51 52 52 53 54 55 54 53 51 49 48 46 44 43 42 40
62 56 50 45 42 38 36 32 28 24 20 16 12 10 8 8 8 8 8 8 9 10 10 11 12 12 14 15 16 18 21 22 24 24 24 25 26 28 31 35 40 44 48 50 52 53 54 55 58 61 66 73 78 81 82 82 82 82 81 80 80 79 78 75 71 66 60 56 54 53 53 54 54 55 55 54 53 51 49 48 46 44 42 42 40 40
58 54 49 44 40 36 33 29 24 20 16 12 10 8 8 8 8 8 8 9 9 10 10 11 12 13 14 15 17 20 22 24 25 26 26 26 26 28 31 36 40 44 48 50 51 53 54 55 58 62 68 74 79 81 81 80 80 79 79 79 79 78 76 72 68 62 58 56 55 55 55 55 55 55 54 53 51 50 48 46 44 42 42 41 40 40
54 50 46 42 37 33 29 24 20 16 12 10 8 8 8 8 8 8 8 9 10 10 10 11 12 13 14 16 18 21 24 26 26 27 26 26 27 29 32 36 40 44 47 49 51 52 54 56 60 64 70 75 78 78 78 77 76 76 76 78 77 76 73 68 64 60 57 56 56 56 56 55 55 54 52 51 49 47 46 44 42 42 41 41 40 40
51 47 42 37 32 28 24 20 16 12 10 9 8 8 8 8 8 9 9 9 10 10 10 11 12 13 14 16 19 22 25 27 28 28 28 28 28 30 33 37 41 44 47 50 51 53 54 58 62 66 71 74 76 76 74 74 74 74 76 77 76 74 70 65 62 59 58 57 57 56 55 54 54 52 50 48 47 45 44 42 42 42 41 41 41 41
47 42 37 32 28 24 20 16 13 10 9 8 8 8 9 9 9 9 9 9 10 10 10 11 12 14 15 17 20 23 26 28 30 30 29 29 30 32 34 38 42 45 48 50 52 54 56 60 64 68 70 72 72 72 71 72 73 75 77 76 74 70 66 63 60 59 58 58 56 55 54 53 52 50 48 46 44 43 42 42 42 41 41 41 41 40
42 38 32 28 24 20 16 13 11 10 9 8 8 9 9 9 9 9 9 10 10 10 10 12 13 14 16 18 21 24 28 30 31 31 31 31 32 34 36 40 43 46 48 50 52 54 57 62 66 68 69 69 69 69 70 72 75 76 76 74 71 68 64 62 61 60 58 57 56 54 53 52 50 48 45 44 42 42 41 41 41 41 41 40 40 40
39 34 29 24 20 16 13 11 10 10 9 9 9 9 9 9 9 10 10 10 10 10 11 12 13 15 17 20 23 26 29 31 32 32 32 33 34 36 38 41 44 46 49 51 53 55 58 63 66 68 68 67 67 68 71 75 77 77 76 72 69 66 64 62 60 59 57 56 54 53 52 50 47 45 43 42 41 40 40 40 40 40 40 40 40 40
35 30 26 21 16 13 11 10 10 10 10 10 9 10 10 10 10 10 10 10 10 11 12 13 14 16 18 21 24 28 31 33 34 34 34 35 36 38 40 42 44 47 50 51 53 56 59 63 66 67 66 66 66 70 74 77 77 76 73 70 68 65 63 62 60 58 56 54 53 51 50 47 44 42 41 40 39 39 39 39 39 38 38 38 38 38
32 26 21 17 14 11 10 9 9 10 10 10 10 10 10 10 10 10 10 10 11 12 13 14 16 18 20 22 26 30 33 34 35 36 36 38 39 40 42 44 46 48 50 51 53 56 59 63 65 65 64 65 68 72 77 78 76 74 71 68 66 64 63 60 58 56 54 52 51 49 46 44 42 40 39 38 38 38 37 37 37 36 36 36 36 36
26 21 17 14 12 10 9 9 9 10 10 10 10 10 10 10 11 11 11 11 12 12 13 15 17 19 22 25 28 31 34 35 36 37 38 40 41 42 44 46 48 50 50 52 53 55 58 61 62 63 63 66 70 74 78 76 74 72 69 68 66 63 61 58 55 53 52 50 48 46 44 42 40 38 38 37 36 36 35 35 34 34 34 34 34 34
20 17 14 12 11 10 10 9 9 10 10 10 10 10 10 11 11 12 12 12 13 14 15 16 18 21 24 27 30 32 34 36 38 39 40 42 43 44 46 48 50 51 52 52 53 55 57 59 60 61 63 68 73 76 77 75 73 70 68 66 64 61 58 55 53 51 50 48 46 43 41 39 38 37 36 35 34 34 33 33 32 32 32 32 32 32
17 14 13 12 11 10 10 10 10 10 10 10 10 10 11 12 12 13 13 14 15 16 17 19 21 23 26 29 32 34 35 37 39 41 42 44 45 46 47 49 50 52 52 53 54 55 56 57 58 60 64 71 75 77 76 73 71 68 66 64 61 58 55 52 50 49 47 45 43 41 39 37 36 35 34 34 32 32 32 31 30 30 30 30 30 30
15 14 13 12 12 11 10 10 10 10 10 10 11 11 12 13 14 14 15 16 16 18 20 22 24 26 28 31 33 34 36 37 40 42 45 46 47 48 48 50 52 53 53 53 54 55 56 56 58 61 66 72 76 76 74 72 69 67 64 61 58 55 52 50 48 46 44 42 40 39 37 36 34 34 32 32 31 30 30 29 29 28 28 28 28 28
15 14 14 13 12 11 10 10 10 10 10 11 12 12 13 14 15 16 16 18 19 21 23 25 26 28 30 33 35 37 38 38 41 44 46 48 49 50 50 51 53 54 54 54 54 55 56 56 58 61 67 73 76 75 73 70 68 65 62 58 55 52 49 48 46 44 42 40 38 37 35 34 33 32 31 30 30 30 29 28 28 28 27 27 26 26
15 15 14 13 12 11 10 10 10 10 11 11 12 13 14 15 16 17 18 20 22 24 26 28 30 31 32 35 38 40 41 42 43 46 49 50 50 50 50 52 54 55 55 54 55 56 57 58 60 62 68 73 75 74 72 69 66 63 59 55 52 49 47 45 43 42 40 38 37 35 34 32 32 31 30 30 29 29 28 28 27 27 26 26 26 26
16 16 15 13 12 10 9 10 10 11 11 12 13 14 15 16 18 19 21 23 25 27 28 30 32 34 36 38 40 42 43 44 46 49 51 52 52 52 51 53 54 56 55 55 56 57 58 60 62 64 69 74 75 74 71 68 64 60 56 52 49 46 44 43 41 40 38 36 35 34 32 31 30 30 30 29 29 29 28 28 27 27 27 26 26 27
17 16 14 12 11 10 9 10 10 11 12 13 14 15 16 18 20 22 24 26 27 28 30 31 33 36 39 42 44 45 46 48 50 52 54 54 54 53 53 54 55 56 56 56 58 60 61 62 64 66 72 75 74 72 70 66 62 57 52 49 46 44 43 41 40 38 36 35 34 32 31 30 30 30 29 29 29 28 28 28 28 27 27 27 27 27
17 15 13 11 10 10 10 10 11 12 13 14 15 16 18 20 22 24 26 27 28 28 30 32 34 38 42 46 48 49 49 51 53 54 55 55 54 54 53 54 56 56 57 58 60 62 64 65 66 69 74 75 74 72 69 64 59 54 50 47 45 43 42 40 38 37 35 34 32 32 30 30 30 30 29 29 29 28 28 28 28 28 28 28 28 28
16 14 11 10 10 10 10 10 11 13 14 16 17 19 20 22 24 25 26 27 28 29 30 34 37 41 45 50 52 53 54 56 56 57 57 57 56 55 54 55 56 58 60 62 64 66 67 67 68 71 75 75 74 70 67 62 56 52 48 46 44 42 40 39 37 36 34 32 32 31 30 30 30 29 29 29 28 28 28 28 28 28 28 28 28 28
14 12 11 11 11 10 10 10 12 14 16 17 19 20 22 24 25 26 26 28 29 31 34 37 40 44 49 53 55 57 58 58 58 58 58 58 58 57 55 55 57 60 63 65 67 68 68 69 71 74 76 75 73 69 65 59 54 50 47 44 42 41 39 38 36 34 33 32 31 31 30 30 30 29 29 28 28 28 28 28 28 28 28 28 28 28
14 12 11 11 11 11 10 11 12 14 16 18 20 22 24 24 26 26 26 29 31 34 37 40 44 48 52 55 57 58 60 60 60 59 59 60 59 57 55 57 60 63 66 68 70 70 70 71 73 76 76 74 72 68 63 57 52 48 46 44 42 40 38 37 35 34 32 32 31 31 30 30 29 29 28 28 28 28 28 28 28 28 28 28 28 28
13 12 11 11 11 10 10 11 13 15 18 19 21 23 24 25 26 27 28 31 34 37 40 43 46 50 53 56 58 60 61 60 60 60 60 60 59 57 56 58 62 66 69 71 72 72 72 73 75 76 76 74 71 66 60 55 50 47 45 43 41 40 38 36 35 34 32 32 31 31 30 30 30 29 29 29 29 29 30 30 30 30 30 30 30 29
13 12 11 11 10 10 10 12 14 16 18 20 22 23 24 26 27 29 31 34 37 40 42 45 48 50 52 56 58 61 61 61 60 60 60 60 58 57 56 58 63 68 72 73 73 74 74 76 77 76 76 73 69 64 58 53 49 46 44 42 40 39 37 36 34 33 32 32 31 31 31 30 30 30 30 31 31 31 31 31 31 31 31 31 31 30
12 12 11 11 10 10 10 12 14 16 18 20 22 24 26 27 28 30 33 36 39 42 44 47 50 52 53 56 58 61 61 61 61 60 59 58 58 57 56 59 64 70 74 75 75 75 77 78 77 76 74 72 68 62 56 51 48 45 43 42 40 38 36 35 34 33 32 32 32 32 32 32 32 32 32 33 33 34 34 34 34 34 33 33 32 32
12 12 11 10 10 10 10 12 14 16 19 21 23 25 26 28 30 32 36 39 42 44 46 49 51 52 54 57 59 61 62 62 61 60 58 57 57 58 58 61 66 71 75 76 76 77 78 78 77 76 74 71 66 60 54 50 46 44 42 41 39 38 36 35 34 34 33 33 33 34 34 34 34 35 36 36 36 36 36 36 36 36 35 35 34 34
12 11 11 10 10 10 11 13 15 17 19 22 24 26 28 30 33 35 38 41 44 46 49 50 51 52 54 57 60 62 63 62 61 59 56 57 58 58 60 63 68 72 76 77 78 78 79 78 76 75 73 69 64 58 52 48 45 43 42 40 39 37 36 35 35 34 34 35 35 36 36 37 38 38 39 39 39 39 39 38 38 38 37 37 36 35
12 11 10 10 10 10 11 13 15 18 20 22 25 27 30 33 36 38 41 44 47 49 50 50 50 52 54 57 60 63 64 62 60 58 56 57 59 61 62 66 69 73 76 79 80 79 79 78 76 74 72 68 62 56 50 47 44 42 41 40 38 37 36 36 36 36 36 37 38 38 39 40 41 41 42 42 42 41 41 40 40 40 39 38 38 37
11 10 10 10 10 10 12 14 16 18 21 24 26 30 32 36 39 42 44 47 48 50 49 50 50 52 55 58 62 64 64 61 58 56 56 59 61 63 64 68 71 74 77 80 80 80 78 76 75 73 70 65 60 54 49 46 44 42 40 39 38 38 38 38 38 38 39 40 40 42 42 43 44 44 44 44 44 43 43 42 42 42 40 40 39 38
11 10 10 10 10 11 12 14 16 19 22 25 28 32 35 39 42 44 47 48 49 49 48 49 51 54 57 60 63 64 63 60 57 56 58 62 64 66 67 70 72 75 77 80 80 79 77 76 74 72 68 63 57 52 48 45 43 42 40 40 39 39 39 39 40 40 41 42 43 44 45 46 46 46 46 46 46 45 44 44 43 42 42 40 40 38
11 10 10 10 10 12 13 16 18 20 24 27 31 35 38 42 44 47 49 49 48 48 48 50 52 56 58 61 62 62 60 58 57 58 60 64 66 67 69 72 74 76 77 78 78 78 76 74 73 70 66 60 55 50 46 44 43 42 41 40 40 40 40 41 42 43 44 45 46 47 48 48 48 48 48 48 47 46 46 45 44 43 42 41 40 38
10 10 10 10 11 13 15 17 20 23 26 30 34 38 41 44 46 48 49 48 47 47 48 50 54 57 60 60 60 60 58 58 58 60 63 66 68 69 70 74 76 77 76 77 76 76 74 73 71 68 63 58 53 49 46 44 43 42 42 42 42 42 42 43 44 45 46 48 49 50 50 50 50 50 49 49 48 47 46 45 44 43 42 40 39 37
10 10 10 10 12 14 16 19 22 25 29 32 36 40 44 46 48 48 48 46 46 46 48 52 55 58 60 60 58 58 58 58 60 62 64 66 68 70 72 74 76 76 76 76 76 75 74 72 69 66 61 56 52 48 46 44 43 42 42 42 43 43 44 45 46 47 49 50 51 52 52 52 52 51 50 50 49 48 46 45 44 42 41 39 37 35
10 10 10 11 13 15 18 21 24 28 32 35 39 42 46 48 48 47 46 44 45 46 49 52 55 57 58 58 58 58 58 58 60 62 64 66 69 71 74 75 75 75 75 74 74 74 73 71 68 63 58 54 50 48 46 44 44 43 43 44 44 45 46 47 48 50 51 52 53 53 54 54 53 53 52 51 50 48 46 45 43 41 39 36 34 32
10 10 10 12 14 17 20 24 27 31 34 38 42 44 47 48 47 45 44 44 45 47 50 52 54 55 56 57 57 58 59 60 60 62 64 66 68 71 74 74 74 74 74 74 74 73 72 69 65 60 56 53 50 48 46 45 44 44 44 45 46 46 47 49 50 52 53 54 55 55 56 55 55 54 53 52 50 48 46 43 41 38 35 32 30 27
10 10 11 13 16 19 22 26 30 34 37 40 43 46 48 47 45 44 42 43 45 48 50 52 53 54 54 55 57 58 60 60 61 62 63 66 68 71 74 74 74 74 74 74 73 72 71 68 63 59 55 52 50 48 46 46 46 46 46 47 48 48 50 51 52 54 55 56 57 57 58 58 57 56 54 52 49 47 44 40 38 34 31 28 24 22
11 11 12 15 18 22 26 29 32 36 39 42 45 47 48 46 44 42 42 44 46 48 50 51 52 53 54 55 57 58 60 60 60 62 64 66 68 71 73 74 74 74 74 74 73 72 70 66 62 58 55 52 50 48 47 47 47 47 48 48 50 50 52 53 55 56 58 58 59 60 60 59 58 56 54 51 48 44 40 36 32 29 26 22 19 16
12 13 14 18 21 25 28 32 34 37 40 44 46 48 47 45 44 42 43 44 46 48 50 50 52 53 54 56 57 58 58 59 60 62 65 68 70 72 74 74 74 74 74 74 72 70 68 64 60 57 54 52 50 49 48 48 48 49 49 50 52 53 54 56 57 58 60 60 61 61 61 60 58 56 52 48 44 40 35 31 27 24 20 17 15 13
13 15 17 20 24 28 31 34 36 39 42 45 47 48 47 45 44 43 44 45 47 48 50 50 52 54 55 56 57 57 57 58 60 63 67 70 72 74 75 76 75 74 74 73 72 70 66 62 59 56 54 53 52 51 50 50 50 51 52 53 54 55 56 58 59 60 62 63 63 63 62 60 57 53 49 44 39 34 30 26 22 18 16 13 12 10
15 17 19 24 27 30 33 35 38 40 44 47 48 48 47 45 44 44 45 46 48 49 50 52 53 55 56 56 56 56 56 58 61 64 68 71 74 75 76 76 76 74 74 73 71 68 65 62 59 57 55 54 53 52 52 52 52 53 54 56 56 57 58 60 62 63 64 65 65 64 63 59 54 49 43 38 34 29 24 21 17 14 12 11 10 10
16 19 22 26 30 32 35 37 40 42 45 48 49 49 48 46 46 46 48 49 50 51 52 54 55 56 56 55 54 54 55 58 61 66 70 73 76 76 77 76 76 74 74 72 70 67 64 61 59 58 56 55 54 54 54 54 55 56 57 58 58 60 60 62 64 66 68 68 66 64 60 55 49 43 37 32 28 24 20 16 14 12 11 10 10 9
18 21 25 28 32 35 37 40 42 44 46 48 49 49 48 48 48 49 50 52 53 54 54 55 56 56 55 53 52 52 54 58 63 68 72 75 76 77 77 76 75 74 73 72 69 66 64 62 60 58 57 56 56 56 56 56 57 58 59 60 61 62 64 65 66 68 69 68 65 61 55 48 42 37 32 27 23 19 16 13 12 11 10 10 10 9
20 24 28 31 34 38 40 42 44 46 47 49 50 50 50 49 50 51 53 54 55 55 55 55 55 54 52 50 50 52 56 61 66 70 74 76 77 77 76 76 75 74 73 71 69 66 64 62 61 60 58 58 58 58 58 58 59 60 61 62 63 65 67 68 69 69 69 66 61 55 48 42 36 31 26 22 18 15 13 12 11 10 10 10 9 8
22 26 30 34 38 41 44 45 46 46 48 49 50 51 51 51 52 53 55 56 56 56 55 54 53 52 51 50 51 54 60 65 69 73 76 76 77 76 76 76 74 74 72 71 69 67 65 63 61 60 59 59 59 60 60 61 61 62 63 64 66 67 69 70 70 69 68 62 56 49 42 36 31 26 21 18 15 13 12 11 10 10 10 9 8 8
25 29 34 38 42 45 47 47 47 47 48 50 51 52 52 53 54 55 56 57 57 56 55 54 53 53 53 53 55 59 64 68 71 74 76 76 76 76 76 75 74 74 72 71 69 68 66 64 62 61 60 60 60 61 62 63 64 64 65 66 68 69 70 70 69 67 63 56 49 42 36 30 26 21 18 15 14 12 12 11 10 10 9 8 8 8
27 32 37 41 45 48 49 48 48 48 48 50 51 52 54 54 55 56 57 57 57 57 56 56 55 56 57 58 60 64 67 70 72 74 76 76 76 76 76 75 74 73 72 71 70 68 67 65 64 62 62 62 63 64 64 65 66 66 67 68 70 71 71 70 67 62 56 49 42 36 30 26 21 18 15 14 13 12 11 10 10 9 8 8 8 8
29 34 40 44 47 50 51 50 50 49 48 49 51 53 54 55 56 57 58 58 58 58 58 59 59 60 61 62 64 66 68 70 72 74 76 76 76 76 76 75 74 74 72 71 70 69 68 66 65 64 64 64 66 66 66 67 68 68 69 70 71 72 71 68 63 57 50 43 36 31 26 22 18 16 14 13 12 11 10 10 9 8 8 8 8 7
32 38 42 46 50 52 53 52 51 50 49 49 50 52 54 56 57 58 58 58 59 60 61 62 63 63 64 64 64 65 67 70 72 74 76 76 76 76 76 75 74 74 73 72 71 69 68 66 66 65 65 66 68 68 68 68 69 70 71 72 72 72 70 65 58 50 43 37 32 26 22 19 16 14 13 12 11 10 10 9 8 8 8 8 8 7
34 40 45 49 52 54 55 54 53 51 50 50 50 52 54 56 57 58 59 60 60 62 63 64 64 64 64 63 63 64 67 70 73 75 76 76 76 76 76 76 75 74 74 72 71 70 68 68 66 66 66 68 70 70 71 71 71 72 73 73 72 70 66 60 52 44 38 32 27 23 20 17 15 14 12 11 10 10 9 8 8 8 8 8 8 7
38 43 48 51 54 55 56 56 55 53 51 51 52 53 55 57 58 59 60 61 62 63 64 63 62 62 62 61 62 64 67 70 74 76 76 76 76 76 76 76 76 75 74 74 72 71 69 69 69 69 69 70 71 72 73 73 73 73 73 72 69 66 60 53 46 39 32 28 24 20 18 16 14 13 12 10 10 9 9 9 9 8 8 8 8 8
Wind_Speed
40 40 40 39 39 39 39 40 40 41 42 43 43 44 44 45 45 45 45 46 45 45 45 44 44 43 43 42 42 41 41 40 40 39 38 38 37 36 35 34 34 33 34 34 35 35 35 35 36 36 35 34 32 30 29 28 27 26 25 24 22 21 20 19 18 16 15 14 13 12 10 10 10 11 12 13 14 15 15 16 16 16 16 16 16 16
40 40 39 39 39 39 40 40 40 41 42 43 43 44 44 45 45 45 45 45 45 44 44 43 43 43 42 42 41 41 40 40 39 39 38 37 36 36 35 34 33 33 34 34 34 35 35 35 35 35 34 33 31 29 27 26 25 24 23 22 21 20 19 18 16 15 14 13 12 11 10 10 11 12 13 14 15 16 16 16 16 16 16 16 16 16
39 39 39 38 38 39 39 40 40 41 42 42 43 44 44 45 45 45 45 45 44 44 43 43 42 42 42 42 41 41 40 40 39 38 38 37 36 36 35 34 33 33 33 34 34 35 35 35 35 35 33 31 29 27 26 25 24 23 21 21 20 20 18 17 15 14 13 13 11 11 10 11 12 13 14 15 15 16 16 16 16 16 16 16 16 16
38 38 38 38 38 38 39 39 40 41 42 43 43 44 44 44 45 45 45 44 44 44 43 43 42 42 42 41 41 40 40 39 39 38 38 37 36 35 34 34 33 33 33 34 34 34 35 35 35 34 32 30 28 26 25 24 23 21 21 21 20 19 17 16 15 14 13 12 11 11 11 12 13 14 15 15 16 16 16 16 16 16 16 16 16 16
37 37 37 37 38 38 39 39 40 41 42 43 44 44 44 44 44 44 44 44 43 43 43 43 42 42 42 41 41 40 40 39 39 38 37 37 36 35 34 33 33 33 33 34 34 34 34 34 34 33 31 29 27 25 24 23 22 21 21 21 20 18 16 15 15 14 13 12 11 11 12 12 13 14 15 15 16 16 16 16 16 16 16 16 16 16
36 36 37 37 37 38 39 39 40 41 42 43 44 44 44 44 44 44 44 44 43 43 43 43 42 42 41 41 41 40 40 39 38 38 37 36 36 35 34 33 33 33 33 34 34 34 34 33 33 31 29 27 26 24 23 22 22 22 22 21 19 17 16 15 14 14 13 12 12 12 13 13 14 15 15 15 15 16 16 16 16 16 16 16 16 16
36 36 36 37 37 38 39 40 41 42 43 43 44 44 44 44 44 44 44 44 44 43 43 43 42 42 41 41 40 40 39 39 38 37 37 36 35 34 33 33 33 33 33 33 33 33 33 32 32 30 28 26 25 24 23 22 22 22 22 20 18 17 16 15 14 13 12 12 12 13 13 14 14 15 15 15 15 16 16 16 16 16 16 16 16 16
35 36 36 36 37 38 39 40 41 42 43 43 44 44 44 44 44 44 44 43 43 43 43 43 43 42 41 41 40 39 39 39 38 37 36 35 34 34 33 33 33 33 33 33 33 32 32 32 30 29 27 26 24 23 23 23 23 23 22 19 17 16 15 14 14 13 12 12 13 13 14 14 15 15 15 15 15 16 16 16 16 16 16 16 16 16
35 35 36 37 38 39 40 41 42 42 43 43 44 44 44 44 44 44 44 44 43 43 43 43 43 42 42 41 40 39 38 38 38 37 36 35 34 33 33 32 32 32 32 32 32 32 31 31 30 28 26 25 24 24 24 24 24 22 20 18 17 16 15 14 13 13 13 13 13 14 15 15 15 15 15 15 16 16 16 16 16 16 16 16 16 16
35 35 36 37 38 39 41 42 42 43 43 43 43 44 43 44 44 44 44 44 43 43 42 42 42 42 42 41 40 39 38 38 37 36 35 34 33 33 32 32 32 32 32 32 31 31 31 30 29 27 26 25 24 24 25 25 23 21 19 17 16 15 14 14 13 13 13 14 14 14 15 15 15 15 15 16 16 16 16 16 16 16 16 16 16 16
35 35 36 37 39 40 41 42 43 43 43 43 44 44 44 43 43 43 44 44 44 43 42 42 42 41 41 40 40 39 38 37 36 36 35 34 33 32 32 32 32 32 32 31 31 31 30 29 28 27 25 25 25 25 25 24 22 20 18 16 16 15 14 14 13 13 14 14 14 15 15 15 15 15 15 16 16 16 16 16 16 16 16 16 16 16
35 36 37 38 39 40 41 42 43 43 43 43 43 44 44 44 43 43 43 43 43 43 42 42 42 41 40 39 39 38 38 37 36 35 34 33 32 32 32 32 31 31 31 31 31 30 30 29 28 26 25 25 25 25 25 23 20 18 17 16 15 15 14 14 14 14 14 14 15 15 15 15 15 15 16 16 16 16 16 16 16 16 16 16 16 16
36 36 37 38 40 40 41 42 43 43 43 43 43 43 43 43 43 43 43 43 43 42 42 42 41 41 40 39 38 38 37 36 35 34 33 33 32 32 32 32 31 31 31 31 30 30 29 28 27 26 26 25 25 25 23 21 19 17 16 16 15 14 14 14 14 14 14 15 15 15 15 15 15 15 16 16 16 16 16 16 16 16 16 16 16 16
36 37 38 39 40 40 41 42 42 43 43 43 42 43 43 43 43 43 43 42 42 42 41 41 41 40 39 38 37 37 37 36 35 34 33 32 32 32 31 32 31 31 30 30 30 30 29 28 27 27 26 26 25 24 22 20 18 17 16 16 15 15 14 14 14 14 14 15 15 15 15 15 15 16 16 16 16 16 16 16 16 16 16 16 16 16
37 38 38 39 40 40 41 41 42 42 42 42 42 42 43 43 43 42 42 42 41 41 41 40 40 39 38 37 36 36 36 36 35 34 33 32 32 32 31 31 31 31 30 30 30 29 28 28 27 27 26 25 24 23 21 19 18 17 16 16 15 15 14 14 14 14 15 15 15 15 15 15 15 15 16 16 16 16 16 16 16 16 15 15 15 15
38 38 39 39 40 40 41 41 41 42 42 42 42 42 42 42 42 42 41 41 41 40 40 39 39 39 38 37 36 35 35 35 34 33 32 32 32 32 31 31 31 31 30 30 29 29 28 28 27 26 26 25 24 22 20 19 18 17 16 16 15 15 14 14 15 15 15 15 15 15 15 15 15 15 15 15 16 16 16 15 15 15 15 15 15 15
38 38 39 39 40 40 40 41 41 41 41 42 42 42 42 42 42 41 41 40 40 40 39 39 38 38 37 37 36 35 34 34 34 33 32 32 32 32 31 31 31 30 30 29 29 29 28 27 27 26 25 25 23 22 20 19 18 17 16 16 15 15 15 15 15 15 15 15 15 15 15 15 15 15 15 15 15 15 15 15 15 15 15 15 15 15
38 39 39 40 40 40 40 40 41 41 41 41 41 41 41 41 41 40 40 39 39 39 39 38 37 37 36 36 36 36 35 34 33 33 32 32 32 32 31 31 30 30 29 29 29 28 28 27 27 26 25 24 23 22 20 19 18 17 16 15 15 15 15 15 15 15 15 15 15 15 15 15 15 15 15 15 15 15 15 15 15 14 14 14 14 15
39 39 39 40 40 40 40 40 40 40 40 41 41 41 41 40 40 39 39 38 38 38 38 37 37 36 36 36 36 36 35 34 33 33 32 32 32 32 31 30 30 30 29 29 29 28 28 27 26 26 25 24 23 22 20 19 18 17 16 15 15 15 15 15 15 15 15 15 15 15 15 15 15 15 15 15 15 15 15 14 14 14 14 14 14 15
39 39 40 40 40 40 40 39 39 39 40 40 40 40 40 39 39 38 38 38 38 37 37 37 36 36 36 36 37 36 35 34 33 33 32 32 32 31 31 30 30 29 29 29 28 28 27 27 26 25 25 24 23 21 20 19 18 17 16 15 15 15 15 15 15 15 15 15 15 15 15 15 15 15 15 15 15 15 14 14 14 14 14 15 15 15
39 40 40 39 39 39 39 38 38 39 39 39 40 39 39 38 38 37 37 37 37 37 37 36 36 36 36 37 37 36 35 33 33 33 32 32 32 31 30 30 30 29 29 29 28 28 27 26 26 25 24 23 22 21 20 19 18 17 16 16 15 15 15 15 15 15 15 15 15 15 15 15 15 15 15 15 15 14 14 14 14 15 15 15 15 15
39 40 40 39 39 38 38 38 38 38 38 38 38 38 38 37 37 37 37 37 36 36 36 36 36 36 36 36 36 36 34 33 33 32 32 32 31 31 30 30 29 29 29 28 28 27 26 26 25 25 24 23 22 21 20 19 18 17 16 16 16 15 15 15 15 15 15 15 15 15 15 15 15 15 15 15 15 15 15 15 15 15 15 15 16 16
39 40 39 39 38 37 37 37 37 37 38 38 37 37 37 37 37 36 36 36 36 36 36 36 36 36 36 36 36 35 34 34 33 32 32 32 31 31 30 29 29 29 28 27 26 26 25 25 25 24 24 23 22 21 20 19 18 17 16 16 16 16 15 15 15 15 15 15 15 15 15 15 15 15 15 15 15 15 15 15 15 15 16 16 16 17
39 39 39 38 37 37 36 36 36 37 37 37 37 37 36 36 36 36 36 36 36 36 36 36 36 36 36 36 36 35 34 33 33 32 32 31 31 30 29 29 29 28 27 26 25 25 24 24 24 24 23 23 22 21 20 19 18 17 17 16 16 16 16 15 15 15 15 15 15 15 15 15 15 15 15 15 15 15 15 16 16 16 16 17 17 18
39 39 38 38 37 36 36 36 36 36 36 36 36 36 36 36 36 36 36 35 35 35 36 36 36 36 36 36 35 35 34 33 32 31 31 31 31 30 29 29 28 27 26 25 24 24 24 24 24 23 23 22 22 21 20 19 18 17 17 17 16 16 16 16 15 15 15 15 15 15 15 15 16 16 16 16 16 16 16 16 17 17 17 18 18 19
39 39 38 37 36 36 35 35 35 36 36 36 36 36 36 36 36 36 35 35 35 35 36 36 36 36 36 35 34 34 33 32 31 31 30 30 30 30 29 29 28 27 25 25 24 25 25 25 24 23 23 22 21 21 20 19 18 18 17 17 17 16 16 16 16 16 15 15 15 16 16 16 16 16 16 16 17 17 17 17 18 18 18 19 19 20
39 38 37 37 36 36 35 35 35 35 35 35 35 35 35 35 35 36 36 35 35 35 36 36 36 36 35 34 33 32 32 31 30 30 30 30 30 30 29 28 27 26 25 25 25 26 26 25 24 23 23 22 21 21 20 19 18 18 17 17 17 17 16 16 16 16 16 16 16 16 16 16 17 17 17 17 17 18 18 18 19 19 19 20 20 21
38 38 37 36 36 35 35 35 35 35 35 35 35 35 35 35 35 35 36 35 35 35 35 35 35 35 34 33 32 31 30 30 29 29 29 29 30 29 28 27 27 26 26 26 26 27 26 25 24 23 23 22 21 21 20 19 19 18 18 17 17 17 17 16 16 16 16 16 16 17 17 17 17 18 18 18 18 19 19 19 20 20 20 21 21 22
38 37 37 36 36 35 35 35 35 35 35 35 35 35 35 35 35 35 35 35 35 35 35 35 34 33 33 32 31 30 29 29 29 29 29 29 29 28 27 27 26 26 26 27 27 27 26 25 23 23 22 22 21 20 20 19 19 18 18 18 17 17 17 17 17 17 17 17 17 17 17 18 18 18 19 19 19 20 20 20 21 21 22 22 23 23
37 37 36 36 36 35 35 35 35 35 35 35 35 35 34 34 34 35 35 34 34 35 34 34 33 32 31 30 29 29 28 28 28 28 28 28 28 27 27 26 26 26 27 27 27 26 25 24 23 22 22 22 21 20 20 19 19 19 18 18 18 17 17 17 17 17 17 17 18 18 18 19 19 19 20 20 20 21 21 21 22 22 23 23 24 24
37 36 36 36 35 35 35 35 35 34 34 34 34 34 34 34 34 34 34 34 34 34 33 33 32 31 30 29 28 28 27 27 27 27 28 28 27 27 26 26 26 26 26 26 25 24 23 23 22 22 22 21 21 20 20 19 19 19 19 18 18 18 18 18 18 18 18 18 18 19 19 19 20 20 20 21 21 22 22 22 23 23 24 24 25 26
36 36 35 35 35 35 35 34 34 34 34 34 34 34 34 34 33 33 33 33 33 32 32 31 30 29 28 27 27 27 27 26 26 26 27 27 27 26 26 26 26 26 25 24 23 22 22 22 22 22 21 21 21 20 20 20 20 19 19 19 19 18 18 18 18 19 19 19 19 19 20 20 20 21 21 22 22 22 23 23 24 24 25 25 26 27
36 35 35 35 35 34 34 34 34 33 33 33 33 33 33 33 33 33 32 32 32 31 30 30 29 28 27 26 26 26 26 26 26 26 26 26 26 26 25 26 25 25 24 23 22 21 21 22 22 22 21 21 21 21 20 20 20 20 19 19 19 19 19 19 19 19 19 20 20 20 21 21 21 22 22 22 23 23 24 24 25 25 26 27 27 28
35 35 35 34 34 34 34 33 33 33 33 33 33 33 33 32 32 32 31 31 30 30 29 28 27 27 26 26 26 26 25 25 25 25 26 26 26 25 25 25 24 23 22 21 21 21 21 21 22 22 21 21 21 21 21 20 20 20 20 20 20 19 19 20 20 20 20 20 21 21 21 22 22 22 23 23 23 24 24 25 25 26 27 28 28 29
35 34 34 34 33 33 33 33 33 33 33 33 33 32 32 32 31 31 30 30 29 28 27 27 26 26 26 26 25 25 25 25 25 25 25 25 25 25 24 24 23 22 21 20 21 21 21 21 22 22 22 21 21 21 21 21 21 21 20 20 20 20 20 20 20 21 21 21 22 22 22 23 23 23 24 24 24 25 25 26 26 27 28 29 29 30
34 34 34 33 33 33 33 33 33 33 33 33 32 32 31 31 30 29 29 28 27 27 26 26 25 25 25 25 25 25 25 24 24 24 25 25 24 24 23 22 21 20 20 20 21 21 21 22 22 22 22 22 21 21 21 21 21 21 21 21 21 21 21 21 21 21 22 22 22 23 23 23 24 24 24 25 25 26 26 27 27 28 29 30 30 31
34 34 33 33 33 32 32 32 32 32 32 32 32 31 30 29 29 28 27 27 26 25 25 25 25 25 25 25 25 25 24 24 24 24 24 24 23 22 21 21 20 20 20 21 21 21 22 22 22 22 22 22 22 21 21 22 22 21 21 21 21 21 21 22 22 22 23 23 23 23 24 24 24 25 25 26 26 27 27 28 28 29 30 30 31 31
33 33 33 33 32 32 32 32 32 32 32 31 31 30 29 28 28 27 26 25 25 25 25 25 25 25 25 25 25 25 24 24 24 24 24 23 22 21 20 20 20 20 21 21 22 22 22 22 22 22 22 22 22 22 22 22 22 22 22 22 22 22 22 22 23 23 23 24 24 24 25 25 25 26 26 26 27 28 28 29 29 30 30 31 31 31
33 33 33 32 32 32 32 32 32 32 31 31 30 29 28 27 26 26 25 25 24 24 24 24 25 25 25 25 25 24 24 24 24 24 23 22 22 21 20 20 21 21 21 22 22 22 22 22 22 22 22 22 22 22 22 22 22 22 22 22 22 23 23 23 23 24 24 24 25 25 25 25 26 26 27 27 28 28 29 29 30 30 30 31 31 31
33 33 32 32 32 32 32 32 32 31 31 30 29 28 27 27 26 25 24 24 24 24 24 24 25 25 25 25 24 24 24 24 24 24 23 22 21 21 21 21 21 22 22 22 22 22 22 23 23 23 23 23 23 23 23 23 23 23 23 23 23 23 23 24 24 25 25 25 25 26 26 26 26 27 27 28 29 29 29 30 30 30 30 30 30 30
33 33 32 32 32 32 32 31 31 31 30 30 29 28 27 26 25 25 24 24 24 24 24 25 25 25 25 25 24 24 24 24 24 23 22 21 21 21 21 22 22 22 22 22 23 23 23 23 23 23 23 23 23 23 23 23 23 23 23 23 23 24 24 25 25 25 26 26 26 26 26 26 27 27 28 28 29 29 29 30 30 29 29 29 29 29
32 32 32 32 32 31 31 31 31 30 30 29 29 28 27 26 25 25 24 24 24 24 24 25 25 25 25 24 24 25 25 25 24 23 22 21 21 21 22 22 23 23 23 23 23 23 23 23 23 23 23 23 23 23 23 23 23 23 23 23 24 24 25 25 25 26 26 26 26 26 27 27 27 28 28 29 29 29 29 29 29 29 29 28 28 28
32 32 32 32 31 31 31 31 30 30 30 29 28 28 27 26 25 25 25 25 25 25 25 25 25 25 25 25 25 25 25 25 24 23 22 21 21 22 23 23 23 23 23 23 23 24 24 24 24 24 24 24 24 23 23 23 23 23 24 24 24 25 25 26 26 26 26 26 26 26 27 27 28 28 29 29 29 29 28 28 28 28 28 28 27 27
32 32 32 31 31 31 31 31 30 30 29 29 28 28 27 26 26 25 25 25 25 25 25 25 25 25 25 25 25 25 25 25 24 23 21 21 21 22 23 23 24 24 24 24 24 24 24 24 24 24 24 24 24 24 23 23 23 24 24 25 25 25 26 26 26 26 26 26 26 27 27 28 28 28 29 28 28 28 28 27 27 27 27 27 27 27
32 32 31 31 31 31 31 31 30 30 29 29 28 28 27 27 26 26 26 26 25 25 25 25 25 25 26 26 26 26 25 25 23 22 21 21 22 23 23 24 24 24 24 24 24 24 24 24 25 25 25 24 24 24 23 23 24 24 24 25 25 26 26 26 26 26 26 26 26 27 27 28 28 28 28 28 27 27 27 27 26 26 26 26 27 27
32 31 31 31 31 31 31 31 30 30 29 29 29 28 28 27 27 26 26 26 26 25 25 25 25 26 26 27 26 26 25 23 22 21 21 22 22 23 24 24 25 25 25 25 25 25 25 25 25 25 25 24 24 24 24 24 24 24 25 25 26 26 26 26 26 26 26 26 26 27 28 28 28 28 27 27 26 26 26 26 26 26 26 26 26 27
32 31 31 31 31 31 31 31 30 30 30 29 29 28 28 28 27 27 26 26 26 26 26 26 26 27 27 27 26 25 24 22 21 21 21 22 23 24 25 25 25 25 25 25 25 25 25 25 25 25 25 24 24 24 24 24 24 25 25 26 26 26 26 26 26 26 26 26 27 27 28 28 27 27 26 26 26 25 25 25 25 26 26 26 27 27
31 31 31 31 31 31 31 31 30 30 30 29 29 29 28 28 27 27 27 26 26 26 26 27 27 27 27 27 25 24 23 21 21 21 22 22 24 24 25 25 25 25 25 25 25 26 26 26 25 25 25 24 24 24 24 24 25 25 26 26 26 26 26 26 26 26 26 27 27 27 27 27 26 26 26 25 25 25 25 25 25 26 26 27 27 27
31 31 31 31 31 31 31 31 30 30 30 29 29 29 28 28 28 27 27 26 26 27 27 27 27 27 27 26 24 23 22 21 21 21 22 23 24 25 26 26 26 26 26 26 26 26 26 26 25 25 25 24 24 24 24 25 25 26 26 26 26 26 26 26 26 26 27 27 27 27 27 27 26 26 25 25 25 25 25 25 26 26 26 27 27 28
31 31 30 31 31 31 31 31 30 30 30 30 29 29 29 28 28 27 27 27 27 27 27 27 27 27 26 24 23 22 21 21 21 22 22 24 25 25 26 26 26 26 26 26 26 26 26 25 25 25 25 25 24 25 25 25 26 26 26 26 26 25 25 25 26 26 27 27 27 27 27 26 26 25 25 24 24 25 25 26 26 26 27 27 28 28
31 31 30 31 31 31 31 31 30 30 30 30 29 29 28 28 28 27 27 27 27 27 27 27 27 26 25 23 22 22 21 21 21 22 23 24 25 26 26 26 26 26 26 26 26 26 25 25 25 25 25 25 25 25 25 26 26 26 26 25 25 25 25 25 26 26 27 27 27 26 26 25 25 25 25 24 25 25 25 26 27 27 28 28 28 28
Wind_Direction
283 283 283 282 283 284 284 285 286 287 289 290 290 291 292 293 294 295 295 296 297 297 298 299 299 299 299 300 300 299 299 299 298 297 296 295 294 293 292 292 292 292 292 293 294 295 297 299 301 302 302 300 297 294 291 289 287 287 287 289 289 288 284 278 270 261 252 244 239 239 241 248 255 261 267 271 274 278 280 281 281 281 280 280 281 281
282 281 281 281 282 283 284 285 286 287 288 289 290 290 291 292 293 294 295 296 296 297 297 298 298 299 299 299 299 299 298 298 297 296 295 294 293 292 292 292 292 291 291 292 293 295 297 299 301 302 301 299 296 292 289 286 284 284 286 287 287 284 279 271 262 252 244 239 238 240 246 253 260 265 269 273 276 278 280 280 281 280 280 280 280 281
280 280 279 280 281 282 283 285 286 287 287 288 289 290 291 292 293 294 295 295 296 297 297 297 298 298 298 298 298 298 297 297 296 295 294 293 293 292 292 292 291 291 291 291 293 294 297 299 301 301 300 298 294 290 285 282 281 282 285 285 284 279 272 263 254 245 240 238 240 244 251 258 263 268 271 274 277 279 280 280 280 280 280 280 280 280
278 278 278 279 280 281 283 284 285 286 287 288 289 290 291 292 293 294 294 295 296 296 297 297 297 297 297 297 297 297 296 296 295 294 293 293 292 292 292 291 290 290 290 291 292 294 297 299 300 301 299 296 292 287 282 280 280 282 284 284 280 274 265 255 246 240 238 239 243 250 256 262 266 269 273 275 277 278 279 280 280 280 280 280 280 280
277 277 278 279 280 281 283 284 285 286 287 288 289 290 291 292 293 294 294 295 295 295 296 296 296 296 296 296 296 296 295 294 294 293 293 292 292 292 291 290 289 289 289 290 292 294 296 299 300 300 298 294 289 285 281 279 280 283 283 281 275 267 256 247 240 237 238 242 249 255 260 265 269 271 274 276 277 278 279 280 280 280 280 280 280 280
277 277 278 279 280 282 283 284 285 286 287 288 289 290 291 292 293 294 294 294 295 295 295 295 295 295 295 295 294 294 294 293 292 292 292 291 291 291 290 289 288 288 288 289 291 293 296 298 299 298 296 292 287 283 280 280 282 283 282 277 269 258 248 240 236 237 241 247 254 260 265 268 271 273 275 276 277 278 279 279 280 280 280 280 280 281
277 277 278 279 280 282 283 284 285 286 287 288 289 290 291 292 293 293 294 294 294 294 294 294 294 294 293 293 293 293 292 292 291 291 290 290 290 289 288 288 287 287 287 289 290 293 295 297 298 297 294 289 285 282 281 282 283 282 279 271 261 250 240 236 236 240 246 253 259 264 268 270 273 274 275 276 277 277 278 278 279 279 280 280 280 281
277 278 278 279 281 282 283 284 284 285 287 288 289 290 291 292 292 293 293 293 293 293 293 293 293 292 292 292 292 292 291 291 290 290 289 289 289 288 287 286 286 286 286 288 290 292 295 296 297 295 291 287 283 281 282 283 283 279 273 264 252 242 236 235 239 245 252 258 263 267 270 272 273 274 275 276 276 277 277 278 278 279 280 280 281 281
277 278 279 279 280 282 283 284 285 286 287 288 289 290 291 292 293 293 293 293 292 292 292 292 291 291 291 291 290 290 290 289 289 288 288 288 287 286 285 285 284 285 285 287 289 291 293 295 295 293 289 285 282 282 283 283 280 275 266 254 243 236 235 238 243 250 257 262 266 269 271 272 273 274 275 275 276 276 277 278 278 279 280 280 281 282
277 278 279 280 280 281 282 284 286 287 288 289 290 290 291 291 292 293 293 292 292 291 291 290 290 290 290 290 290 289 289 288 287 287 287 286 285 285 284 284 284 284 285 286 288 290 292 293 293 291 287 284 283 283 283 281 276 268 256 244 236 234 236 242 248 255 260 264 267 269 271 272 273 274 275 275 276 276 277 278 279 279 280 281 282 282
277 278 278 279 281 282 283 284 286 287 289 290 290 291 291 291 291 291 291 291 291 290 290 289 288 288 288 289 289 289 288 287 286 286 285 284 283 283 282 282 282 283 284 285 287 288 290 291 291 289 286 284 283 283 282 278 271 259 247 237 234 236 241 247 253 258 262 264 267 269 271 272 273 274 275 276 276 277 278 279 279 280 281 282 283 283
277 278 278 279 281 282 284 285 287 288 289 290 290 291 291 291 291 290 290 290 289 289 289 288 288 287 288 288 288 288 287 286 286 285 284 283 282 281 281 281 281 282 283 284 285 287 288 289 288 287 285 284 283 282 279 273 263 250 239 235 235 240 246 251 256 260 263 265 267 269 270 272 273 274 275 276 277 278 279 280 281 282 282 283 284 285
276 277 278 279 281 283 284 286 287 288 289 289 290 290 291 291 290 290 289 289 288 288 288 287 287 287 287 287 287 287 286 286 285 284 283 282 281 280 280 280 280 281 282 282 284 285 286 287 286 286 285 284 283 280 274 265 253 242 236 236 239 245 250 255 258 261 264 266 268 269 270 272 273 274 276 277 278 279 280 281 282 283 283 284 285 286
276 277 278 280 282 283 285 286 287 288 289 289 290 290 290 290 290 289 289 288 288 287 287 286 286 286 287 287 287 286 286 285 284 283 282 280 280 279 279 279 279 280 281 281 282 283 284 285 285 285 285 284 281 276 268 256 245 238 236 239 244 249 253 257 260 262 264 266 268 269 271 272 273 275 276 278 279 280 281 282 283 284 285 286 287 288
276 277 279 281 283 284 285 286 287 288 289 289 289 289 289 289 289 288 288 288 287 287 286 286 286 286 286 286 286 286 285 285 284 283 281 280 278 278 278 278 279 279 280 280 281 282 283 284 285 286 285 283 278 270 260 248 240 236 238 242 247 251 255 258 261 263 265 266 268 269 271 272 274 276 277 278 280 280 281 282 283 285 286 287 288 289
276 278 280 282 284 285 286 286 287 288 288 289 289 288 288 288 288 288 288 287 287 286 286 286 286 286 286 286 285 285 284 284 283 282 280 279 278 277 277 277 278 278 279 279 280 281 282 283 284 285 284 281 274 264 252 243 238 238 241 246 250 253 256 259 261 263 264 266 268 269 271 273 275 276 277 278 279 280 281 283 284 285 286 288 289 290
277 279 281 283 284 285 286 286 287 287 287 288 288 287 287 287 287 287 287 287 286 286 285 285 285 286 286 286 286 285 284 283 282 281 279 277 276 276 276 277 277 278 278 278 279 280 281 282 283 284 282 277 269 258 247 240 238 240 244 248 251 254 256 259 261 263 264 266 268 270 271 273 274 276 277 278 279 280 281 283 284 286 287 288 290 291
278 280 282 283 284 285 286 286 286 287 287 287 287 287 287 287 287 286 286 286 285 285 285 285 285 285 285 286 285 284 284 283 282 280 278 276 275 275 275 276 276 277 277 278 279 280 281 281 282 282 279 273 264 253 243 239 240 243 247 250 252 254 257 259 261 262 264 266 268 269 271 272 274 275 276 277 278 279 281 282 284 286 287 289 290 291
279 281 282 283 284 285 285 285 285 286 286 286 286 286 286 286 286 286 285 285 285 285 285 285 285 285 285 285 284 284 284 283 281 279 276 275 274 274 275 275 275 276 277 277 278 279 280 280 280 279 275 269 259 248 242 240 242 245 248 250 253 255 257 258 260 262 264 265 267 269 270 272 273 274 275 276 277 278 280 282 284 285 287 289 290 291
280 281 282 282 283 284 284 285 285 285 285 285 285 286 286 286 285 285 285 285 284 285 285 285 285 285 285 284 284 284 284 282 280 277 275 274 273 273 274 274 275 275 276 277 278 279 279 279 278 276 271 263 254 245 241 241 244 247 249 251 253 254 256 258 260 261 263 265 266 268 269 270 272 273 274 275 276 278 280 281 283 285 287 289 290 291
280 280 281 282 283 283 283 284 284 284 284 285 285 285 285 285 285 285 284 284 284 285 285 285 285 284 284 284 283 283 283 281 278 275 274 273 272 272 273 273 274 275 276 277 277 277 277 277 276 273 267 258 249 243 241 242 245 247 249 250 252 254 256 257 259 261 262 264 265 266 268 269 270 271 273 274 276 277 279 281 283 285 287 288 290 291
279 280 281 281 282 282 282 283 283 284 284 284 285 285 285 285 285 284 284 284 285 285 285 285 285 284 284 284 283 283 282 279 276 274 273 272 271 272 272 273 274 275 276 276 276 276 275 274 273 269 262 253 245 241 241 243 245 247 248 250 251 253 255 257 258 260 261 263 264 265 267 268 269 270 272 274 275 277 279 281 283 285 287 289 290 291
278 279 280 281 281 281 281 282 283 284 284 284 284 285 285 284 284 284 284 285 285 285 285 285 285 285 284 283 282 281 279 277 274 273 271 270 270 271 271 272 273 275 275 275 275 274 273 272 270 265 257 248 242 240 241 243 245 246 248 249 251 252 254 256 257 259 260 261 263 264 265 267 268 270 272 273 276 278 280 282 284 286 288 289 291 292
278 279 279 280 280 280 281 282 283 283 284 284 284 284 284 284 284 284 284 285 285 285 285 285 285 285 284 283 281 279 277 275 273 271 270 269 269 270 271 272 273 274 274 274 273 273 272 271 267 260 252 244 240 239 241 243 245 246 247 248 250 251 253 254 256 257 259 260 261 263 264 266 268 270 272 274 276 278 281 283 285 287 288 290 291 292
278 278 278 279 279 280 281 282 282 283 284 284 284 284 284 284 284 284 284 284 285 285 285 285 285 284 283 282 280 277 275 273 271 270 269 269 269 270 270 272 272 272 272 271 271 272 271 269 263 255 246 240 238 239 241 243 244 245 246 247 249 250 251 253 254 255 257 258 260 262 264 266 268 270 272 275 277 279 281 283 285 287 288 290 291 293
277 277 278 278 278 279 280 281 282 283 284 284 284 284 284 284 284 284 284 284 284 285 285 285 284 283 282 280 278 275 273 272 270 268 268 268 269 269 270 271 271 270 270 269 270 271 270 266 259 250 241 237 237 239 240 242 243 244 245 246 248 249 250 251 253 254 255 257 259 261 263 266 268 270 272 275 277 279 281 283 285 286 288 289 291 292
276 276 277 277 278 279 280 281 282 283 283 284 284 284 284 284 284 284 284 284 284 285 285 284 284 282 281 278 275 273 272 270 269 268 267 268 269 270 270 270 269 268 268 269 270 270 268 262 253 244 237 235 236 238 240 241 242 243 244 246 247 248 249 250 251 253 255 256 258 261 263 265 268 270 272 274 277 279 281 283 284 286 287 289 290 292
275 276 276 277 277 278 279 281 282 283 283 284 284 284 284 284 284 283 283 284 284 284 284 283 282 281 279 276 274 272 270 269 268 267 267 268 269 270 270 269 268 267 268 269 270 269 265 257 247 239 234 234 236 238 239 240 241 242 243 245 246 247 248 249 250 252 254 256 258 260 263 265 268 270 272 275 277 279 281 282 284 286 287 289 290 291
275 275 276 276 277 278 279 280 281 282 283 283 284 284 284 283 283 283 283 284 284 284 283 282 281 279 277 275 273 270 269 267 267 267 268 268 269 269 269 268 267 267 268 270 269 266 260 251 241 235 232 233 236 237 238 239 240 242 243 244 245 246 247 248 250 252 254 256 258 261 263 266 268 271 273 275 277 279 281 283 284 286 287 289 290 291
274 274 275 276 277 278 279 280 281 282 283 283 283 283 283 283 282 282 283 283 283 283 282 281 279 277 275 273 271 268 267 266 266 267 267 268 268 268 268 267 267 268 269 269 267 261 252 243 236 232 231 233 235 237 238 239 240 241 243 244 245 246 247 248 250 252 255 257 259 262 265 267 270 272 274 276 278 280 282 284 285 287 288 289 290 291
273 274 274 275 276 277 278 279 280 281 282 283 283 283 282 282 282 282 282 282 282 282 281 280 278 276 273 271 268 266 266 265 266 266 267 267 268 267 267 267 268 269 269 267 261 252 243 236 232 231 232 233 235 236 237 239 240 241 242 244 245 246 248 249 251 253 256 258 261 264 266 269 271 273 276 277 279 281 283 285 286 288 289 290 291 292
273 273 274 275 276 277 278 279 280 281 282 282 282 282 281 281 281 281 281 281 281 281 280 278 276 274 271 269 267 266 265 265 266 266 266 267 267 267 267 268 268 268 267 263 255 244 235 231 230 231 233 234 236 237 237 239 240 242 243 244 246 247 248 251 253 255 257 260 263 265 268 270 273 275 277 279 281 283 284 286 288 289 290 291 292 293
272 273 274 274 275 277 278 279 280 281 282 282 281 281 281 280 280 280 281 281 280 280 278 276 274 272 269 267 266 265 265 265 265 265 266 267 267 267 268 268 267 265 262 255 246 237 231 229 230 232 234 235 236 237 238 239 241 242 244 245 246 248 250 252 255 257 259 262 265 267 270 272 274 276 278 280 282 284 286 288 289 290 291 292 293 294
272 272 273 274 275 276 278 279 280 281 281 281 281 280 280 279 280 280 280 280 279 278 276 274 272 270 268 266 265 264 264 265 265 265 266 267 268 268 268 267 265 260 254 246 238 232 229 229 231 233 235 236 237 238 239 241 242 243 245 246 248 250 251 254 256 259 261 264 266 269 271 273 276 278 280 282 284 286 288 289 291 292 292 293 294 294
272 272 273 274 275 276 278 279 280 280 280 280 279 279 279 279 279 279 279 279 278 276 274 272 270 268 266 265 264 264 264 264 264 265 266 267 268 268 266 264 260 254 246 237 232 229 229 230 232 234 236 237 238 239 240 242 243 245 246 248 249 251 253 255 258 260 263 265 268 270 273 275 278 280 282 284 286 288 289 290 291 292 293 293 294 294
271 272 273 274 275 276 277 279 279 279 279 279 278 278 278 278 278 278 278 277 276 274 272 270 268 267 265 265 264 264 264 264 265 266 267 268 268 266 263 260 254 247 238 232 229 229 230 232 234 235 237 238 239 240 241 243 244 246 248 249 251 253 255 257 260 262 264 267 269 272 275 277 280 282 284 286 288 289 290 291 292 293 293 293 294 294
271 272 273 274 275 276 277 278 279 279 278 278 277 277 277 277 277 277 277 276 274 272 270 268 267 265 265 264 264 264 264 265 266 267 268 269 268 265 260 254 248 240 233 230 229 230 232 234 235 236 237 239 240 241 242 244 246 248 249 251 253 255 257 259 261 264 266 269 271 274 277 279 281 284 285 287 288 290 291 291 292 293 293 293 293 293
271 272 273 274 275 276 277 277 278 278 277 277 276 276 275 275 275 275 275 274 272 271 269 267 266 265 264 264 264 264 264 265 267 268 269 269 266 262 256 248 241 235 231 230 230 232 234 235 236 237 238 239 241 242 244 245 247 249 251 253 254 257 259 261 263 266 268 271 273 276 278 281 283 285 286 288 289 290 291 291 292 292 293 293 293 293
270 271 272 273 274 275 276 276 277 277 277 276 275 274 273 273 273 273 273 272 270 269 268 266 265 264 264 264 264 264 264 266 268 269 269 267 264 258 251 243 236 232 231 231 232 234 235 236 237 238 239 240 242 243 245 247 249 251 252 254 256 258 261 263 265 268 270 272 275 277 279 282 284 285 287 288 289 290 291 292 292 293 293 293 294 294
270 271 271 272 274 274 275 276 276 276 276 274 273 272 271 271 271 271 270 270 269 268 267 266 265 265 264 264 264 264 265 266 268 269 268 265 260 253 245 238 234 232 232 233 234 236 236 237 238 239 240 241 243 245 246 248 250 252 254 257 259 261 263 265 268 270 272 275 277 279 281 282 284 285 287 288 289 290 291 292 292 293 293 293 294 294
269 270 271 272 273 274 274 275 276 275 274 273 271 269 268 268 268 268 268 268 267 267 266 266 265 265 265 265 264 265 266 267 269 269 267 262 255 248 241 235 233 232 234 235 236 237 238 238 239 240 241 243 244 246 248 250 252 254 256 259 261 263 265 268 270 272 275 277 278 280 282 283 285 286 287 288 290 291 291 292 292 293 294 294 295 296
268 269 270 271 272 273 274 274 274 274 273 271 269 267 266 266 266 266 266 266 266 266 266 266 265 265 264 264 264 265 267 268 269 268 264 258 250 243 237 234 233 234 235 237 238 238 239 239 240 241 243 244 246 248 249 252 254 256 258 261 263 265 268 270 272 274 276 278 280 281 283 284 285 287 288 289 290 291 292 292 293 294 295 296 296 297
267 268 269 270 271 272 273 273 273 272 271 269 267 265 264 264 264 264 265 265 265 265 265 265 264 264 263 263 264 266 267 268 268 266 260 253 246 239 236 234 235 236 237 238 238 239 240 240 241 242 244 245 247 249 251 253 256 258 261 263 265 268 271 273 274 276 278 279 281 282 283 285 286 288 289 290 291 291 292 293 294 295 296 297 297 298
266 267 268 269 270 271 272 272 272 271 269 267 265 263 262 262 262 263 263 264 264 264 264 264 263 263 262 263 264 265 267 267 266 262 255 248 242 237 236 236 237 238 239 239 239 240 240 241 242 244 245 247 249 251 253 255 258 260 263 265 268 270 273 274 276 277 279 280 282 283 284 286 287 288 289 290 291 292 292 293 294 296 297 298 298 299
265 266 267 268 269 270 270 270 270 269 267 265 263 261 260 260 260 261 262 263 263 263 263 262 262 261 262 262 263 264 264 263 261 256 249 243 239 237 237 237 239 240 240 240 240 241 241 242 244 245 247 249 250 253 255 257 260 262 265 267 270 272 274 276 277 278 279 280 282 283 285 286 287 288 289 290 291 291 293 294 295 296 297 298 298 299
265 265 266 267 268 269 269 269 269 267 266 264 262 260 259 259 259 260 261 262 262 262 261 261 261 260 261 262 262 262 260 258 254 248 243 239 237 237 238 239 240 241 241 241 242 242 243 244 245 247 248 250 252 255 257 260 262 265 267 269 272 274 276 277 278 279 280 281 282 283 285 286 287 288 289 289 291 292 293 294 295 296 297 297 298 299
264 264 265 266 267 267 267 268 267 266 264 262 260 259 258 258 259 259 260 260 261 260 260 259 259 259 260 260 259 257 255 250 246 242 239 237 237 238 239 240 241 242 242 242 243 243 244 246 247 249 251 253 255 258 260 262 265 267 269 271 273 275 277 278 279 279 280 281 283 284 285 286 287 287 288 290 291 292 293 294 295 296 297 297 298 299
263 263 264 265 265 266 266 266 266 264 263 261 259 258 257 257 258 258 259 259 259 259 259 258 258 258 257 256 255 252 248 244 240 238 237 237 238 239 241 242 243 243 243 243 244 245 246 248 249 251 253 255 257 260 262 264 267 269 271 273 275 276 277 278 279 280 281 282 283 284 285 286 287 287 288 290 291 292 293 294 295 296 297 298 299 299
262 262 263 263 264 264 265 265 264 263 262 260 258 257 257 256 257 257 258 258 258 258 257 257 256 256 254 252 249 246 242 239 237 236 237 238 240 241 242 243 244 244 244 245 245 246 248 249 251 253 255 257 259 262 264 266 268 270 272 274 275 276 277 278 279 281 282 283 284 285 285 286 287 288 289 290 291 292 293 294 295 296 297 298 299 300
261 261 262 262 263 263 263 263 263 262 261 259 258 257 256 255 256 256 256 256 256 256 256 255 254 252 250 247 243 240 237 235 234 235 237 239 241 242 244 245 245 245 245 246 247 248 249 251 253 255 257 259 261 263 265 267 269 271 273 274 275 276 278 279 280 281 282 283 284 284 285 286 287 289 289 290 291 292 293 295 296 297 298 299 299 300
260 261 261 261 262 262 262 262 262 261 260 258 257 256 255 254 254 254 254 255 255 254 253 252 250 248 245 242 238 236 234 233 234 235 237 240 242 244 245 246 246 246 247 247 248 250 251 253 254 256 259 261 263 265 267 268 270 271 272 274 275 276 277 279 280 281 282 282 283 284 285 286 287 288 289 290 291 293 294 295 297 298 298 299 300 301